Jaipur, India

12:09 PM IST on March 25, 2017 (GMT +0530)
Jaipur

Weather History for VIJP - September, 2013

Change the Weather History Date:

Tuesday, September 10, 2013

  Actual Average Record
Temperature  
Mean Temperature 86 °F -  
Max Temperature 95 °F - - ()
Min Temperature 77 °F - - ()
Cooling Degree Days 21    
Growing Degree Days 36 (Base 50)    
Moisture  
Dew Point 67 °F    
Average Humidity 51    
Maximum Humidity 69    
Minimum Humidity 25    
Precipitation  
Precipitation 0.00 in - - ()
Sea Level Pressure  
Sea Level Pressure 29.77 in    
Wind  
Wind Speed 2 mph ()    
Max Wind Speed 9 mph    
Max Gust Speed -    
Visibility 2.4 miles    
Events      
T = Trace of Precipitation, MM = Missing Value Source: Averaged Metar Reports

Daily Weather History Graph

Daily Weather History Graph

Search for Another Location

Airport or City:

Trip Planner

Search our weather history database for the weather conditions in past years. The results will help you decide how hot, cold, wet, or windy it might be!

Date:

Astronomy

Sep. 10, 2013 Rise Set
Actual Time 6:10 AM IST 6:37 PM IST
Civil Twilight 5:46 AM IST 7:00 PM IST
Nautical Twilight 5:19 AM IST 7:27 PM IST
Astronomical Twilight 4:51 AM IST 7:55 PM IST
Moon 10:35 AM IST (9/10) 9:50 PM IST (9/10)
Length of Visible Light 13h 13m
Length of Day
12h 26m
Waxing Crescent, 24% of the Moon is Illuminated
Sep 10
Waxing Crescent
Sep 12
First Quarter
Sep 19
Full
Sep 27
Last Quarter
Oct 5
New

Hourly Weather History & Observations

Time (IST) Temp. Heat Index Dew Point Humidity Pressure Visibility Wind Dir Wind Speed Gust Speed Precip Events Conditions
12:00 AM 82.4 °F 86.3 °F 69.8 °F 66% 29.83 in 2.2 mi Calm Calm - N/A   Haze
1:00 AM 82.4 °F 85.4 °F 68.0 °F 62% 29.83 in 2.2 mi Calm Calm - N/A   Haze
2:00 AM 80.6 °F 83.2 °F 68.0 °F 65% 29.80 in 2.2 mi Calm Calm - N/A   Haze
3:00 AM 78.8 °F - 68.0 °F 69% 29.80 in 2.2 mi Calm Calm - N/A   Haze
4:00 AM 78.8 °F - 68.0 °F 69% 29.80 in 2.2 mi Calm Calm - N/A   Haze
5:00 AM 78.8 °F - 68.0 °F 69% 29.80 in 2.2 mi Calm Calm - N/A   Haze
5:30 AM 80 °F - 68 °F 59% 29.58 in 1 mi Calm Calm - -   Haze
6:00 AM 78.8 °F - 68.0 °F 69% 29.83 in 2.2 mi Calm Calm - N/A   Haze
7:00 AM 80.6 °F 83.2 °F 68.0 °F 65% 29.83 in 2.2 mi Calm Calm - N/A   Haze
8:00 AM 86.0 °F 88.2 °F 66.2 °F 51% 29.86 in 2.5 mi Calm Calm - N/A   Haze
8:30 AM 86 °F - 67 °F 43% 29.77 in 2 mi NNW 2.3 mph - -   Haze
9:00 AM 87.8 °F 90.4 °F 66.2 °F 49% 29.86 in 2.5 mi Variable 8.1 mph - N/A   Haze
10:00 AM 89.6 °F 92.2 °F 66.2 °F 46% 29.86 in 2.5 mi Variable 8.1 mph - N/A   Haze
12:00 PM 93.2 °F 96.2 °F 66.2 °F 41% 29.83 in 3.1 mi Variable 6.9 mph - N/A   Haze
1:00 PM 93.2 °F 96.2 °F 66.2 °F 41% 29.80 in 3.1 mi Variable 6.9 mph - N/A   Haze
2:00 PM 95.0 °F 97.0 °F 64.4 °F 36% 29.77 in 3.1 mi WNW 6.9 mph - N/A   Haze
2:30 PM 94 °F - 62 °F 25% 29.67 in 2 mi NW 9.2 mph - -   Haze
3:00 PM 95.0 °F 97.0 °F 64.4 °F 36% 29.74 in 3.1 mi Variable 2.3 mph - N/A   Haze
4:00 PM 95.0 °F 98.5 °F 66.2 °F 39% 29.71 in 3.1 mi Variable 4.6 mph - N/A   Haze
5:00 PM 95.0 °F 96.0 °F 62.6 °F 34% 29.71 in 3.1 mi Variable 6.9 mph - N/A   Haze
6:00 PM 93.2 °F 94.9 °F 64.4 °F 38% 29.71 in 3.1 mi Variable 3.5 mph - N/A   Haze
7:00 PM 91.4 °F 93.2 °F 64.4 °F 41% 29.71 in 2.5 mi Variable 1.2 mph - N/A   Haze
8:00 PM 89.6 °F 91.1 °F 64.4 °F 43% 29.74 in 2.5 mi Calm Calm - N/A   Haze
8:30 PM 87 °F - 66 °F 40% 29.66 in 2 mi Calm Calm - -   Haze
9:00 PM 86.0 °F 88.2 °F 66.2 °F 51% 29.74 in 2.5 mi Calm Calm - N/A   Haze
9:30 PM 84.2 °F 87.3 °F 68.0 °F 58% 29.77 in 2.5 mi Calm Calm - N/A   Haze
10:00 PM 84.2 °F 87.3 °F 68.0 °F 58% 29.77 in 2.5 mi Calm Calm - N/A   Haze
10:30 PM 82.4 °F 85.4 °F 68.0 °F 62% 29.77 in 2.5 mi Calm Calm - N/A   Haze
11:30 PM 83 °F - 68 °F 52% 29.68 in 2 mi Calm Calm - -   Haze